User: anonymous   Login
Location: Unspecified
(0.0000°N, 0.0000°E)
Time: 04:03:07
(UTC+00:00)
Language:

TECSAR - Orbit

View from above orbital plane
View from above orbital plane
View from above satellite
View from above satellite

Ground track
Ground track

The orbit data is extracted from the following two-line orbital elements,

1 32476U 08002A   17269.08179040 0.00000000  00000-0  00000-0 0    09
2 32476  41.0456 329.5419 0006000 270.5206  89.4788 15.15826350    05
Epoch (UTC): 26 September 2017 01:57:46
Eccentricity: 0.0006000
inclination: 41.0456°
perigee height: 514 km
apogee height: 522 km
right ascension of ascending node: 329.5419°
argument of perigee: 270.5206°
revolutions per day: 15.15826350
mean anomaly at epoch: 89.4788°
orbit number at epoch: 0

The dashed part of the orbit path shows where the satellite is in the earth's shadow,  

DLR